Temp
-18 -18 -18 -18 -18 -18 -18 -18 -18 -18 -17 -17 -17 -18 -18 -18 -18 -18 -18 -18 -18 -18 -18 -18 -18 -19 -19 -19 -19 -19 -19 -19 -19 -19 -19 -19 -19 -19 -19 -19 -19 -19
-19 -19 -19 -19 -19 -19 -19 -19 -19 -18 -18 -18 -18 -18 -18 -18 -19 -19 -19 -19 -19 -19 -19 -19 -19 -19 -19 -19 -19 -20 -20 -20 -20 -20 -20 -20 -20 -20 -20 -20 -20 -20
-19 -19 -19 -19 -19 -19 -19 -19 -19 -19 -19 -19 -19 -19 -19 -19 -19 -19 -19 -19 -19 -19 -19 -19 -19 -19 -19 -19 -20 -20 -20 -20 -20 -20 -20 -20 -20 -20 -20 -20 -20 -20
-20 -20 -20 -20 -20 -20 -20 -20 -20 -20 -20 -20 -20 -20 -20 -20 -20 -20 -20 -20 -20 -20 -20 -20 -20 -20 -20 -20 -20 -20 -20 -20 -20 -20 -21 -21 -21 -20 -20 -20 -20 -20
-20 -20 -20 -21 -21 -21 -21 -21 -21 -21 -21 -21 -21 -21 -21 -21 -21 -21 -21 -21 -21 -21 -21 -21 -21 -21 -21 -21 -21 -21 -21 -21 -21 -21 -21 -21 -21 -21 -21 -21 -21 -21
-21 -21 -22 -22 -22 -22 -22 -22 -22 -22 -22 -22 -22 -22 -22 -22 -22 -22 -22 -22 -22 -22 -22 -22 -22 -21 -21 -21 -21 -21 -21 -21 -21 -21 -21 -21 -21 -21 -21 -21 -21 -21
-22 -22 -22 -22 -22 -22 -22 -22 -22 -22 -22 -22 -22 -22 -22 -22 -22 -22 -22 -22 -22 -22 -22 -22 -22 -22 -22 -22 -22 -22 -22 -22 -22 -21 -21 -21 -21 -22 -22 -22 -21 -21
-22 -22 -22 -22 -22 -22 -22 -22 -22 -22 -22 -23 -23 -23 -23 -23 -23 -23 -23 -23 -23 -23 -23 -23 -23 -23 -23 -23 -23 -23 -22 -22 -22 -22 -22 -22 -22 -22 -22 -22 -22 -22
-23 -23 -23 -23 -23 -23 -23 -23 -23 -23 -23 -23 -23 -23 -23 -23 -23 -23 -23 -23 -23 -23 -23 -23 -23 -23 -23 -23 -23 -23 -23 -23 -23 -23 -23 -23 -23 -23 -23 -23 -22 -22
-23 -23 -23 -23 -23 -23 -23 -23 -23 -23 -23 -23 -23 -23 -23 -23 -23 -23 -23 -23 -23 -23 -23 -23 -23 -23 -23 -23 -23 -23 -23 -23 -23 -23 -23 -23 -23 -23 -23 -23 -23 -23
-23 -23 -23 -23 -23 -23 -23 -23 -23 -23 -23 -24 -24 -24 -24 -24 -24 -24 -24 -24 -24 -24 -24 -24 -24 -24 -24 -24 -24 -24 -24 -24 -24 -24 -24 -24 -23 -23 -23 -23 -23 -23
-23 -23 -23 -23 -24 -24 -24 -24 -24 -24 -24 -24 -24 -24 -24 -24 -24 -24 -24 -24 -24 -24 -24 -24 -24 -24 -24 -24 -24 -24 -24 -24 -24 -24 -24 -24 -24 -24 -24 -24 -24 -24
-24 -24 -24 -24 -24 -24 -24 -24 -24 -24 -24 -24 -24 -24 -24 -24 -24 -24 -25 -25 -25 -25 -25 -25 -25 -25 -25 -25 -25 -25 -25 -25 -25 -25 -25 -25 -25 -25 -25 -25 -25 -25
-24 -24 -24 -24 -24 -24 -24 -24 -24 -24 -24 -25 -25 -25 -25 -25 -25 -25 -25 -26 -26 -26 -26 -26 -26 -27 -27 -27 -27 -27 -27 -27 -27 -27 -27 -27 -27 -27 -27 -27 -27 -27
-25 -25 -25 -25 -25 -25 -25 -25 -25 -25 -25 -25 -25 -25 -26 -26 -26 -26 -26 -27 -27 -27 -28 -28 -28 -28 -29 -29 -29 -29 -29 -28 -28 -28 -28 -28 -28 -28 -28 -28 -28 -28
-25 -25 -25 -25 -25 -25 -25 -25 -25 -26 -26 -26 -26 -27 -27 -27 -27 -28 -28 -28 -29 -29 -29 -30 -30 -30 -30 -30 -30 -30 -30 -30 -29 -29 -29 -29 -29 -29 -29 -29 -29 -29
-25 -25 -25 -25 -25 -25 -26 -26 -26 -27 -27 -27 -28 -28 -28 -29 -29 -29 -30 -30 -30 -30 -30 -31 -31 -31 -31 -31 -31 -30 -30 -30 -30 -30 -30 -30 -30 -30 -29 -29 -29 -29
-25 -25 -25 -26 -26 -26 -27 -27 -28 -28 -28 -29 -29 -29 -30 -30 -30 -31 -31 -31 -31 -31 -31 -31 -31 -31 -31 -31 -31 -31 -31 -30 -30 -30 -30 -30 -30 -30 -30 -30 -30 -30
-26 -26 -26 -26 -27 -27 -28 -28 -29 -29 -29 -30 -30 -31 -31 -31 -31 -31 -31 -31 -31 -31 -31 -31 -31 -31 -31 -31 -31 -31 -31 -31 -30 -30 -30 -30 -30 -30 -30 -30 -30 -29
-26 -27 -27 -27 -28 -28 -29 -29 -30 -30 -31 -31 -31 -31 -32 -32 -32 -32 -32 -32 -32 -32 -32 -32 -32 -31 -31 -31 -31 -31 -31 -31 -31 -30 -30 -30 -30 -30 -30 -30 -29 -29
-27 -27 -28 -28 -29 -29 -30 -30 -31 -31 -31 -32 -32 -32 -32 -32 -32 -32 -32 -32 -32 -32 -32 -32 -32 -32 -32 -31 -31 -31 -31 -31 -31 -31 -30 -30 -30 -30 -30 -30 -30 -30
-28 -29 -29 -30 -30 -31 -31 -31 -32 -32 -32 -32 -32 -32 -32 -32 -32 -32 -32 -32 -32 -32 -32 -32 -32 -32 -32 -32 -32 -31 -31 -31 -31 -31 -30 -30 -30 -30 -30 -30 -30 -30
-29 -30 -31 -31 -31 -32 -32 -32 -32 -32 -32 -32 -32 -32 -32 -32 -32 -32 -32 -32 -32 -32 -32 -32 -32 -32 -32 -32 -32 -32 -31 -31 -31 -31 -31 -31 -30 -31 -31 -31 -31 -31
-31 -31 -32 -32 -32 -32 -32 -32 -32 -32 -32 -32 -32 -32 -32 -32 -32 -32 -32 -32 -32 -32 -32 -32 -32 -32 -32 -32 -32 -32 -32 -31 -31 -31 -31 -31 -31 -31 -31 -31 -32 -32
-32 -32 -32 -32 -32 -32 -32 -32 -32 -32 -33 -33 -33 -33 -33 -33 -33 -33 -33 -33 -33 -33 -33 -33 -33 -33 -33 -32 -32 -32 -32 -32 -32 -31 -31 -31 -31 -31 -32 -32 -32 -32
-32 -32 -32 -33 -33 -33 -33 -33 -33 -33 -33 -33 -33 -33 -33 -33 -33 -33 -33 -33 -33 -33 -33 -33 -33 -33 -33 -33 -33 -33 -33 -32 -32 -32 -32 -32 -32 -32 -32 -32 -32 -32
Height
5702 5700 5699 5698 5696 5695 5694 5692 5690 5688 5686 5684 5682 5680 5678 5676 5675 5674 5672 5670 5669 5668 5666 5665 5664 5663 5662 5661 5660 5660 5658 5658 5656 5655 5654 5653 5652 5652 5651 5651 5650 5650
5692 5691 5690 5688 5686 5685 5684 5682 5680 5678 5677 5675 5673 5671 5669 5667 5665 5663 5661 5660 5658 5657 5656 5654 5654 5652 5651 5650 5649 5648 5646 5646 5645 5644 5642 5642 5640 5640 5640 5640 5639 5638
5682 5680 5680 5678 5676 5675 5674 5672 5670 5669 5668 5666 5664 5662 5660 5658 5656 5654 5652 5650 5648 5646 5645 5644 5643 5642 5640 5640 5638 5637 5636 5634 5634 5632 5631 5630 5628 5628 5626 5626 5626 5626
5672 5670 5670 5668 5666 5665 5664 5662 5660 5660 5658 5656 5655 5653 5652 5649 5647 5645 5643 5640 5638 5636 5634 5633 5632 5630 5630 5628 5626 5626 5624 5623 5622 5621 5620 5618 5616 5616 5615 5614 5614 5612
5663 5662 5660 5658 5656 5655 5654 5652 5651 5650 5648 5647 5646 5644 5642 5640 5638 5636 5634 5631 5629 5626 5624 5622 5621 5620 5618 5616 5615 5613 5612 5610 5609 5608 5608 5606 5604 5602 5602 5602 5602 5600
5654 5652 5650 5648 5647 5646 5644 5643 5642 5640 5638 5637 5635 5634 5632 5630 5628 5626 5623 5620 5618 5616 5614 5612 5610 5608 5606 5605 5604 5602 5600 5598 5596 5594 5594 5593 5591 5589 5588 5587 5588 5588
5644 5642 5641 5640 5638 5637 5636 5634 5632 5630 5628 5626 5624 5622 5620 5618 5616 5613 5611 5608 5606 5604 5602 5600 5598 5596 5594 5593 5592 5590 5588 5586 5584 5582 5580 5580 5579 5577 5575 5574 5574 5574
5635 5634 5632 5631 5629 5627 5625 5623 5622 5620 5617 5614 5612 5610 5608 5606 5603 5601 5598 5596 5594 5591 5589 5586 5584 5582 5580 5579 5578 5576 5575 5573 5571 5570 5569 5568 5567 5566 5564 5562 5561 5562
5626 5624 5622 5621 5619 5616 5614 5612 5610 5608 5606 5604 5601 5598 5596 5593 5590 5588 5586 5584 5582 5578 5576 5574 5571 5569 5567 5565 5564 5562 5561 5559 5557 5556 5554 5554 5554 5552 5551 5548 5548 5548
5616 5614 5612 5610 5608 5606 5604 5601 5599 5597 5594 5592 5589 5586 5583 5580 5578 5575 5572 5570 5568 5565 5563 5560 5558 5556 5554 5552 5550 5548 5546 5546 5543 5541 5539 5538 5536 5536 5534 5533 5532 5532
5606 5604 5602 5600 5597 5594 5592 5590 5586 5584 5581 5578 5576 5573 5570 5568 5564 5562 5558 5556 5554 5551 5549 5546 5544 5542 5540 5538 5536 5534 5532 5531 5529 5527 5525 5522 5521 5520 5518 5516 5515 5514
5596 5594 5592 5589 5586 5583 5580 5578 5574 5572 5568 5566 5563 5560 5558 5554 5552 5548 5545 5542 5540 5537 5535 5532 5530 5528 5526 5524 5522 5519 5518 5516 5514 5512 5510 5508 5506 5504 5502 5500 5498 5498
5586 5583 5580 5578 5575 5572 5570 5566 5563 5560 5556 5553 5550 5548 5544 5542 5538 5535 5532 5529 5526 5524 5521 5518 5516 5514 5511 5508 5506 5504 5502 5500 5499 5497 5496 5494 5492 5490 5488 5486 5484 5482
5575 5572 5570 5567 5564 5562 5558 5555 5552 5548 5544 5541 5538 5534 5532 5528 5526 5522 5520 5516 5513 5510 5508 5505 5502 5499 5496 5494 5491 5490 5488 5486 5484 5482 5480 5480 5478 5476 5474 5471 5469 5468
5564 5562 5559 5556 5554 5550 5547 5544 5540 5536 5532 5528 5525 5522 5519 5516 5512 5510 5507 5504 5501 5498 5496 5492 5490 5487 5484 5480 5478 5476 5474 5472 5470 5468 5466 5465 5464 5462 5460 5458 5456 5454
5554 5551 5548 5546 5542 5539 5535 5532 5528 5524 5520 5516 5513 5510 5507 5504 5501 5498 5496 5493 5490 5488 5485 5482 5480 5476 5472 5470 5466 5464 5462 5460 5458 5456 5454 5452 5450 5449 5448 5446 5443 5441
5543 5540 5537 5534 5530 5526 5523 5519 5516 5512 5508 5505 5502 5499 5496 5494 5490 5488 5486 5484 5482 5478 5476 5474 5470 5467 5463 5460 5456 5453 5450 5448 5447 5445 5443 5440 5438 5436 5436 5434 5432 5430
5532 5529 5526 5522 5518 5515 5512 5508 5504 5501 5498 5494 5492 5489 5486 5484 5482 5479 5477 5474 5472 5470 5468 5464 5462 5458 5454 5450 5448 5444 5440 5438 5436 5434 5432 5430 5428 5426 5424 5422 5421 5419
5520 5518 5514 5511 5508 5504 5500 5496 5494 5491 5488 5485 5483 5480 5478 5476 5472 5470 5468 5466 5464 5461 5458 5456 5452 5448 5444 5440 5438 5434 5430 5426 5425 5423 5421 5419 5417 5415 5413 5412 5410 5408
5509 5506 5503 5500 5496 5492 5490 5486 5484 5481 5478 5476 5474 5472 5470 5467 5464 5462 5460 5457 5454 5452 5450 5447 5443 5438 5434 5431 5428 5424 5420 5416 5414 5412 5410 5409 5407 5404 5402 5400 5398 5396
5498 5495 5492 5488 5485 5482 5479 5476 5474 5472 5469 5467 5466 5463 5461 5458 5456 5454 5452 5448 5446 5442 5440 5438 5434 5428 5424 5421 5418 5414 5410 5407 5404 5402 5400 5399 5397 5394 5392 5390 5388 5386
5486 5484 5481 5478 5476 5472 5470 5468 5466 5463 5460 5458 5457 5454 5452 5450 5447 5444 5442 5439 5436 5433 5431 5428 5424 5418 5414 5411 5407 5403 5400 5397 5394 5392 5390 5390 5388 5384 5382 5380 5377 5374
5476 5474 5472 5468 5466 5464 5462 5460 5457 5454 5452 5450 5448 5446 5443 5440 5438 5435 5432 5430 5426 5424 5420 5418 5415 5409 5404 5401 5396 5392 5389 5387 5384 5383 5382 5380 5378 5375 5373 5370 5368 5364
5468 5466 5463 5460 5458 5456 5454 5452 5449 5446 5444 5442 5440 5438 5434 5432 5429 5426 5424 5420 5417 5414 5410 5408 5406 5400 5394 5391 5386 5382 5378 5376 5375 5374 5372 5370 5368 5366 5364 5362 5360 5356
5460 5458 5456 5453 5451 5448 5446 5444 5441 5438 5436 5433 5430 5428 5426 5423 5420 5418 5415 5412 5408 5404 5400 5397 5395 5391 5385 5380 5376 5372 5368 5366 5365 5364 5362 5361 5359 5358 5356 5354 5352 5350
5452 5450 5448 5446 5444 5442 5439 5436 5433 5430 5428 5425 5422 5420 5417 5414 5411 5408 5406 5403 5399 5396 5392 5387 5384 5381 5376 5370 5366 5362 5360 5357 5355 5354 5352 5352 5350 5350 5348 5347 5344 5342
Wind_Speed
62 62 63 63 64 65 66 67 68 70 72 74 76 78 79 80 80 81 81 81 81 81 82 83 83 84 84 84 85 86 86 86 86 85 84 83 82 81 81 81 82 82
64 64 65 65 66 67 68 69 71 72 73 75 76 78 80 81 82 83 84 84 85 85 86 86 87 87 87 87 88 88 88 88 88 88 87 87 86 85 84 83 83 83
68 68 68 68 68 69 70 71 72 72 73 75 77 79 80 82 84 85 86 88 88 89 89 90 90 91 92 92 92 91 90 89 88 87 87 88 88 87 87 86 86 86
71 71 71 71 71 71 72 72 73 74 74 75 76 78 80 81 83 85 86 88 89 89 90 91 91 92 94 95 95 94 92 91 90 89 88 88 89 88 89 90 90 91
73 74 73 73 73 72 72 73 75 75 75 75 76 77 79 81 82 83 85 86 87 88 89 90 92 93 94 95 95 95 95 95 94 94 93 93 93 93 93 94 94 95
73 73 73 72 72 71 72 73 76 77 77 78 80 81 82 83 83 84 85 87 88 89 89 90 91 92 93 94 95 96 97 97 98 98 98 98 98 98 98 98 98 98
72 72 72 72 73 74 76 78 79 80 81 82 83 83 83 83 84 85 86 86 87 88 89 90 91 92 92 93 94 94 96 97 98 99 100 100 101 101 101 101 101 101
73 74 75 76 77 79 79 80 80 80 81 82 82 83 83 84 84 85 86 87 88 89 90 91 92 93 93 94 94 95 96 97 98 99 99 100 101 101 101 102 102 102
76 76 77 77 78 78 78 79 79 80 80 81 82 84 85 85 86 87 88 89 90 90 91 92 93 94 94 95 96 96 97 98 99 99 100 100 101 101 102 102 103 102
77 77 77 78 78 79 79 80 81 82 83 84 85 86 87 88 89 90 91 91 92 93 93 94 94 95 95 96 96 97 98 98 99 100 101 101 102 102 102 103 103 102
77 78 79 79 80 81 82 83 84 85 85 86 87 89 89 90 91 92 93 93 93 94 94 95 95 95 96 96 97 97 98 98 99 99 100 101 101 101 102 102 103 103
79 79 80 81 82 82 84 85 86 87 88 89 90 90 91 92 92 93 93 94 94 94 94 94 94 95 95 95 95 96 96 96 97 97 98 98 99 99 99 99 100 100
80 80 81 82 83 84 85 86 87 89 90 91 91 91 92 92 92 93 93 93 93 93 93 92 92 92 92 92 92 92 92 93 93 93 94 94 94 94 94 94 95 95
81 81 82 83 84 85 87 88 89 90 91 91 91 92 92 92 91 91 91 90 89 89 88 88 87 86 86 86 86 86 87 87 87 88 88 88 88 88 89 89 89 90
82 83 84 85 86 87 88 89 90 90 90 90 90 90 89 89 88 87 86 84 83 82 81 81 80 79 80 80 80 81 81 82 82 82 83 83 83 83 83 84 84 85
83 84 85 86 87 88 89 89 89 89 88 87 87 85 84 83 81 80 79 77 76 75 74 74 74 74 75 76 77 77 78 78 78 78 79 79 79 79 79 79 79 80
84 85 87 88 88 88 87 86 85 84 83 81 80 78 77 75 74 72 71 70 70 70 70 70 70 71 72 73 74 75 75 75 75 75 75 75 75 75 75 75 75 75
86 87 87 87 86 85 84 82 80 78 76 74 72 71 69 68 67 66 66 66 67 67 68 68 69 70 71 71 72 72 73 73 73 72 72 72 72 72 72 71 71 71
86 86 86 85 83 81 79 77 74 72 70 68 66 65 64 63 63 64 64 65 66 67 67 67 68 69 70 70 71 71 72 72 71 70 70 69 69 69 69 69 69 69
85 84 83 81 79 76 74 71 69 66 65 63 62 62 62 62 63 64 65 66 66 67 67 67 68 70 70 70 70 70 70 70 70 69 69 69 68 68 68 68 68 68
83 81 79 76 73 70 68 66 64 63 62 62 62 62 62 63 64 65 66 66 67 67 67 68 69 70 70 70 70 70 70 70 70 70 70 69 69 68 68 68 67 67
79 76 72 69 67 64 63 62 61 61 62 62 63 63 64 65 66 66 67 67 68 69 69 69 69 70 70 69 70 70 70 71 71 70 70 69 68 67 66 65 65 64
73 69 66 64 62 61 61 61 61 62 63 64 64 65 66 67 67 67 68 69 69 70 70 69 68 69 69 69 70 71 71 71 71 70 69 67 66 64 62 61 59 58
67 64 62 61 60 61 61 62 63 64 65 66 66 66 67 68 68 68 69 70 70 70 69 68 68 68 69 70 70 71 71 70 70 68 66 64 62 60 56 54 52 51
62 61 60 60 60 61 62 63 64 65 66 67 67 68 68 68 69 69 69 69 69 69 69 69 68 68 69 69 69 69 69 68 66 65 62 60 57 54 50 47 46 47
60 60 60 60 61 62 63 64 65 66 67 67 68 68 68 69 69 69 68 68 68 68 68 68 67 67 66 66 66 65 65 64 62 60 57 54 51 48 45 44 44 46
Wind_Direction
276 274 273 272 270 269 269 268 268 268 268 269 269 270 271 271 272 272 272 272 272 272 273 273 274 274 275 276 276 276 276 275 275 275 275 275 276 276 277 277 278 278
275 274 272 271 270 269 268 268 267 267 268 268 269 270 271 272 273 274 274 274 274 274 274 274 275 276 276 277 278 278 278 277 276 276 275 275 275 275 276 276 276 276
277 275 274 273 271 270 269 269 268 269 269 270 270 271 272 272 273 274 275 276 276 276 276 275 275 275 276 277 278 278 278 278 278 277 277 276 276 276 276 276 276 276
278 277 276 275 274 273 272 271 271 271 272 273 273 273 274 274 274 275 276 276 277 277 277 277 276 276 276 277 277 277 277 277 277 277 277 277 277 276 276 276 276 277
278 278 277 277 277 276 275 274 273 273 275 276 276 276 276 276 276 276 276 276 277 277 277 277 277 277 277 277 278 278 278 278 277 277 277 277 277 277 277 277 276 276
279 278 278 278 278 277 276 275 275 275 276 278 279 279 279 279 278 278 278 278 278 278 278 278 278 278 278 278 278 278 278 278 278 278 278 278 278 278 278 278 277 277
279 278 278 278 278 278 278 279 279 279 280 281 282 283 283 282 282 282 281 281 281 281 281 280 280 280 279 279 279 278 278 278 278 278 278 278 279 279 279 278 278 277
280 280 280 280 281 282 282 283 283 283 284 284 284 285 284 284 284 284 283 283 283 282 282 282 281 281 281 280 280 279 279 278 278 277 277 277 277 277 277 277 276 276
284 284 284 284 285 285 285 285 285 285 285 285 285 285 285 285 285 284 284 284 283 283 282 282 282 281 281 281 280 280 279 279 278 278 277 277 276 276 275 275 275 274
285 285 286 286 286 286 286 286 286 286 286 287 287 287 286 286 286 286 285 285 284 284 283 283 282 282 282 281 281 280 280 279 279 279 278 278 277 277 276 276 275 274
286 286 286 287 287 287 288 288 288 289 289 289 288 288 288 288 287 287 286 286 285 285 284 284 283 283 282 282 281 281 280 280 279 279 279 279 278 278 278 277 277 276
287 288 288 288 288 289 289 290 290 290 290 290 289 289 288 288 287 287 287 286 286 285 285 284 284 284 283 283 282 281 281 280 280 279 279 278 278 278 278 277 277 277
288 289 289 289 290 290 290 290 290 290 290 290 290 289 289 288 288 287 287 287 287 287 286 286 286 285 285 284 283 283 282 281 281 280 279 279 279 278 278 278 277 277
289 290 290 290 290 290 291 291 291 291 291 290 290 289 289 289 289 288 288 288 288 288 288 288 287 287 287 286 285 285 284 283 283 282 282 281 280 280 280 279 279 278
290 290 290 290 290 291 291 291 291 291 291 291 290 290 290 290 290 290 290 290 289 289 289 289 289 289 288 288 287 287 286 286 285 285 284 283 283 282 282 281 281 280
289 290 290 291 291 291 292 292 291 291 291 291 291 291 291 291 290 290 290 290 290 290 289 289 289 289 289 289 289 288 287 287 286 286 285 285 284 284 283 282 282 281
290 290 291 292 292 292 292 292 292 291 291 291 291 291 290 290 290 290 290 290 290 290 290 290 290 290 290 290 289 289 288 287 287 286 286 286 285 284 284 283 282 282
291 291 292 292 292 292 292 292 291 291 291 290 290 290 290 290 290 290 290 290 291 291 291 291 291 291 291 290 290 290 289 288 288 287 286 286 285 285 284 284 283 282
292 292 292 292 292 292 291 291 291 291 291 290 290 291 291 291 291 291 292 292 292 292 292 292 292 292 292 292 291 291 290 290 289 288 288 287 286 286 286 285 284 284
292 292 292 292 292 292 292 291 291 291 291 292 292 292 292 292 292 292 293 293 293 293 293 294 294 294 294 293 293 292 291 291 290 290 289 289 288 288 288 287 287 286
292 292 292 292 292 292 292 292 292 293 293 293 293 293 293 293 293 293 293 293 294 294 295 295 295 295 294 294 293 292 292 291 291 291 290 291 291 290 290 289 289 288
292 292 292 293 292 293 293 293 293 293 293 293 293 293 294 294 294 294 294 295 295 296 296 296 296 296 295 294 294 293 292 292 292 291 292 292 292 291 291 290 289 288
292 293 293 293 292 292 292 293 293 293 293 293 293 294 294 294 295 295 296 296 297 297 297 297 297 296 295 295 294 293 293 292 292 292 292 292 291 291 290 289 288 287
292 292 292 292 292 292 292 293 293 293 293 294 294 294 295 295 295 296 296 297 298 298 298 297 297 296 296 295 294 293 293 292 292 292 292 291 290 290 289 287 286 286
291 291 291 291 291 292 292 293 293 293 294 294 294 294 295 295 296 296 297 298 298 299 298 298 297 297 296 295 294 293 293 292 292 291 291 290 289 288 286 284 284 284
290 290 290 290 291 292 292 293 293 293 294 294 294 295 295 296 297 297 298 299 299 299 299 298 298 297 296 296 295 294 294 293 293 292 291 289 288 286 284 282 283 284